EW8320 Weather Reports


Display with metric or nautical units.
time (UTC)temp
F
wind
direction
speed
MPH
gust
MPH
rain 1hr
in
rain 24hr
in
rain mn
in
humidity
%
barometer
mb
20191216125329 6 180 0.0 0.0 0.00 0.05 0.00 84 1.3
20191216124328 7 255 2.0 0.0 0.00 0.05 0.00 82 1.3
20191216123329 9 202 1.0 0.0 0.00 0.05 0.00 84 1.3
20191216122327 11 210 2.0 0.0 0.00 0.05 0.00 85 1.3
20191216121328 11 242 4.0 0.0 0.00 0.05 0.00 86 1.3
20191216120328 11 246 4.0 0.0 0.00 0.05 0.00 86 1.3
20191216115328 11 242 4.0 0.0 0.00 0.05 0.00 86 1.3
20191216114428 11 249 4.0 0.0 0.00 0.05 0.00 86 1.3
20191216113428 11 252 2.0 0.0 0.00 0.05 0.00 86 1.3
20191216112428 11 230 4.0 0.0 0.00 0.05 0.00 86 1.3
20191216111430 11 239 4.0 0.0 0.00 0.05 0.00 85 1.3
20191216110428 11 227 3.0 0.0 0.00 0.05 0.00 86 1.3
20191216105428 11 244 5.0 0.0 0.00 0.05 0.00 86 1.3
20191216104526 11 236 4.0 0.0 0.00 0.05 0.00 84 1.3
20191216103528 12 226 3.0 0.0 0.00 0.05 0.00 85 1.3
20191216102626 12 261 6.0 0.0 0.00 0.05 0.00 84 1.3
20191216101627 13 226 4.0 0.0 0.00 0.05 0.00 85 1.3
20191216100629 13 245 4.0 0.0 0.00 0.05 0.00 85 1.3
20191216095728 12 255 4.0 0.0 0.00 0.05 0.00 86 1.3
20191216094728 12 263 3.0 0.0 0.00 0.05 0.00 85 1.3
20191216093827 12 252 5.0 0.0 0.00 0.05 0.00 85 1.3
20191216092827 13 245 7.0 0.0 0.00 0.05 0.00 85 1.3
20191216091828 13 253 6.0 0.0 0.00 0.05 0.00 84 1.3
20191216090828 13 246 4.0 0.0 0.00 0.05 0.00 84 1.3
20191216085929 13 253 4.0 0.0 0.00 0.05 0.00 85 1.3
20191216084929 14 253 3.0 0.0 0.00 0.05 0.00 84 1.3
20191216083926 14 244 4.0 0.0 0.00 0.05 0.00 84 1.3
20191216083027 14 232 3.0 0.0 0.00 0.05 0.00 85 1.3
20191216082028 14 254 5.0 0.0 0.00 0.05 0.00 86 1.3
20191216081128 15 251 4.0 0.0 0.00 0.05 0.00 85 1.3
20191216080227 14 259 4.0 0.0 0.00 0.05 0.00 86 1.3
20191216075322 15 247 5.0 0.0 0.00 0.05 0.05 84 1.3
20191216074323 15 254 3.0 0.0 0.00 0.05 0.05 85 1.3
20191216073421 16 249 4.0 0.0 0.00 0.05 0.05 85 1.3
20191216072422 16 267 4.0 0.0 0.00 0.05 0.05 85 1.3
20191216071422 16 250 5.0 0.0 0.00 0.05 0.05 85 1.3
20191216070424 17 246 5.0 0.0 0.00 0.05 0.05 85 1.3
20191216065521 17 247 5.0 0.0 0.00 0.05 0.05 85 1.3
20191216064620 18 246 4.0 0.0 0.00 0.05 0.05 86 1.3
20191216063623 18 265 5.0 0.0 0.00 0.05 0.05 85 1.3
20191216062622 19 244 4.0 0.0 0.00 0.05 0.05 86 1.3
20191216061622 19 262 5.0 0.0 0.00 0.05 0.05 87 1.3
20191216060622 20 268 5.0 0.0 0.00 0.05 0.05 86 1.3
20191216055722 20 260 4.0 0.0 0.00 0.05 0.05 86 1.3
20191216054823 20 257 5.0 0.0 0.00 0.05 0.05 87 1.3
20191216053822 20 265 4.0 0.0 0.00 0.05 0.05 87 1.3
20191216052822 21 215 4.0 0.0 0.00 0.05 0.05 87 1.3
20191216051823 21 239 2.0 0.0 0.00 0.05 0.05 87 1.3
20191216050822 22 227 2.0 0.0 0.00 0.05 0.05 88 1.3
20191216045921 22 226 3.0 0.0 0.00 0.05 0.05 87 1.3
20191216044922 22 242 4.0 0.0 0.00 0.05 0.05 89 1.3
20191216044022 22 252 4.0 0.0 0.00 0.05 0.05 89 1.3
20191216043121 22 250 4.0 0.0 0.00 0.05 0.05 88 1.3
20191216042123 22 259 3.0 0.0 0.00 0.05 0.05 90 1.3
20191216041221 22 255 2.0 0.0 0.00 0.05 0.05 89 1.3
20191216040321 22 259 6.0 0.0 0.00 0.05 0.05 91 1.3
20191216035323 22 247 4.0 0.0 0.00 0.05 0.05 91 1.3
20191216034423 22 252 3.0 0.0 0.00 0.05 0.05 92 1.3
20191216033427 21 236 3.0 0.0 0.00 0.05 0.05 91 1.3
20191216032523 21 202 0.0 0.0 0.00 0.05 0.05 92 1.3
20191216031523 22 202 1.0 0.0 0.00 0.05 0.05 91 1.3
20191216030522 22 259 2.0 0.0 0.00 0.05 0.05 92 1.3
20191216025524 21 270 2.0 0.0 0.00 0.05 0.05 92 1.3
20191216024621 20 271 3.0 0.0 0.00 0.05 0.05 92 1.3
20191216023721 19 247 0.0 0.0 0.00 0.05 0.05 91 1.3
20191216022725 20 287 0.0 0.0 0.00 0.05 0.05 91 1.3
20191216021822 20 337 0.0 0.0 0.00 0.05 0.05 92 1.3
20191216020823 20 337 1.0 0.0 0.00 0.05 0.05 91 1.3
20191216015922 21 337 0.0 0.0 0.00 0.05 0.05 91 1.3
20191216015022 21 337 0.0 0.0 0.00 0.05 0.05 89 1.3
20191216014122 21 337 0.0 0.0 0.00 0.05 0.05 90 1.3
20191216013123 22 337 0.0 0.0 0.00 0.05 0.05 88 1.3
20191216012223 22 337 3.0 0.0 0.00 0.05 0.05 88 1.3
20191216011323 23 340 4.0 0.0 0.00 0.05 0.05 87 1.3
20191216010324 24 337 3.0 0.0 0.00 0.05 0.05 87 1.3
20191216005324 25 337 4.0 0.0 0.00 0.05 0.05 88 1.3
20191216004421 25 315 1.0 0.0 0.00 0.05 0.05 88 1.3
20191216003424 26 326 3.0 0.0 0.00 0.05 0.05 89 1.3
20191216002523 26 45 2.0 0.0 0.00 0.05 0.05 90 1.3
20191216001523 26 12 0.0 0.0 0.00 0.05 0.05 90 1.3
20191216000523 26 360 0.0 0.0 0.00 0.05 0.05 91 1.3
20191215235522 25 315 1.0 0.0 0.00 0.05 0.05 91 1.3
20191215234521 27 315 3.0 0.0 0.00 0.05 0.05 93 1.3
20191215233621 27 315 2.0 0.0 0.00 0.05 0.05 94 1.3
20191215232721 27 292 0.0 0.0 0.00 0.05 0.05 93 1.3
20191215231722 28 292 0.0 0.0 0.00 0.05 0.05 93 1.3
20191215230722 27 292 0.0 0.0 0.00 0.05 0.05 94 1.3
20191215225722 28 270 0.0 0.0 0.00 0.05 0.05 94 1.3
20191215224822 28 270 0.0 0.0 0.00 0.05 0.05 94 1.3
20191215223823 28 112 0.0 0.0 0.00 0.05 0.05 94 1.3
20191215222822 28 270 0.0 0.0 0.00 0.05 0.05 93 1.3
20191215221920 28 90 0.0 0.0 0.00 0.05 0.05 92 1.3
20191215220921 29 81 9.0 0.0 0.01 0.05 0.05 90 1.3
20191215215922 30 68 5.0 0.0 0.01 0.05 0.05 87 1.3
20191215214921 30 63 6.0 0.0 0.01 0.05 0.05 85 1.3
20191215214021 31 270 0.0 0.0 0.01 0.05 0.05 85 1.3
20191215213023 31 135 0.0 0.0 0.01 0.05 0.05 88 1.3
20191215212025 30 135 0.0 0.0 0.01 0.05 0.05 90 1.3
20191215211123 29 135 0.0 0.0 0.00 0.04 0.04 90 1.3
20191215210221 29 135 0.0 0.0 0.00 0.04 0.04 91 1.3
20191215205223 29 80 3.0 0.0 0.00 0.04 0.04 90 1.3
20191215204222 29 79 5.0 0.0 0.00 0.04 0.04 90 1.3
20191215203222 30 82 9.0 0.0 0.01 0.04 0.04 88 1.3
20191215202322 30 76 6.0 0.0 0.01 0.04 0.04 89 1.3
20191215201423 30 66 3.0 0.0 0.01 0.04 0.04 88 1.3
20191215200423 30 83 6.0 0.0 0.02 0.04 0.04 86 1.3
20191215195522 31 72 7.0 0.0 0.02 0.04 0.04 85 1.3
20191215194523 30 315 1.0 0.0 0.03 0.04 0.04 82 1.3
20191215193620 31 202 0.0 0.0 0.03 0.03 0.03 81 1.3
20191215192622 31 202 0.0 0.0 0.03 0.03 0.03 82 1.3
20191215191721 31 202 0.0 0.0 0.03 0.03 0.03 80 1.3
20191215190723 31 202 0.0 0.0 0.02 0.02 0.02 80 1.3
20191215185823 31 202 0.0 0.0 0.02 0.02 0.02 81 1.3
20191215184921 32 202 1.0 0.0 0.01 0.01 0.01 82 1.3
20191215183922 31 202 0.0 0.0 0.00 0.00 0.00 84 1.3
20191215182924 29 202 0.0 0.0 0.00 0.00 0.00 86 1.3
20191215182022 28 202 0.0 0.0 0.00 0.00 0.00 87 1.3
20191215181022 27 202 0.0 0.0 0.00 0.00 0.00 88 1.3
20191215180121 27 202 4.0 0.0 0.00 0.00 0.00 90 1.3
20191215175121 26 261 4.0 0.0 0.00 0.00 0.00 91 1.3
20191215174122 26 247 1.0 0.0 0.00 0.00 0.00 92 1.3
20191215173124 26 247 1.0 0.0 0.00 0.00 0.00 92 1.3
20191215172222 25 251 4.0 0.0 0.00 0.00 0.00 93 1.3
20191215171322 25 270 3.0 0.0 0.00 0.00 0.00 93 1.3
20191215170421 25 259 2.0 0.0 0.00 0.00 0.00 92 1.3
20191215165423 25 270 1.0 0.0 0.00 0.00 0.00 93 1.3
20191215164523 25 206 4.0 0.0 0.00 0.00 0.00 94 1.3
20191215163521 24 245 3.0 0.0 0.00 0.00 0.00 93 1.3
20191215162621 24 255 3.0 0.0 0.00 0.00 0.00 94 1.3
20191215161623 23 239 2.0 0.0 0.00 0.00 0.00 94 1.3
20191215160723 23 250 2.0 0.0 0.00 0.00 0.00 94 1.3
20191215155821 23 259 3.0 0.0 0.00 0.00 0.00 94 1.3
20191215154822 22 249 3.0 0.0 0.00 0.00 0.00 94 1.3
20191215153823 20 244 3.0 0.0 0.00 0.00 0.00 94 1.3
20191215152922 20 225 1.0 0.0 0.00 0.00 0.00 94 1.3
20191215152022 21 225 0.0 0.0 0.00 0.00 0.00 94 1.3
20191215151121 22 225 2.0 0.0 0.00 0.00 0.00 93 1.3
20191215150122 23 292 1.0 0.0 0.00 0.00 0.00 94 1.3
20191215145221 24 180 0.0 0.0 0.00 0.00 0.00 93 1.3
20191215144222 25 180 0.0 0.0 0.00 0.00 0.00 94 1.3
20191215143223 25 202 0.0 0.0 0.00 0.00 0.00 94 1.3
20191215142321 25 202 0.0 0.0 0.00 0.00 0.00 94 1.3
20191215141321 24 26 1.0 0.0 0.00 0.00 0.00 95 1.3
20191215140322 23 22 0.0 0.0 0.00 0.00 0.00 95 1.3
20191215135322 23 315 0.0 0.0 0.00 0.00 0.00 94 1.3
20191215134322 23 315 0.0 0.0 0.00 0.00 0.00 95 1.3
20191215133423 23 315 0.0 0.0 0.00 0.00 0.00 94 1.3
20191215132521 23 315 0.0 0.0 0.00 0.00 0.00 93 1.3
20191215131523 24 315 0.0 0.0 0.00 0.00 0.00 94 1.3
20191215130522 24 315 0.0 0.0 0.00 0.00 0.00 94 1.3